GFSNIL_prec_precacc24_162.txt.gz
Total_Precipitation_Accumulation
0.00 0.01 0.01 0.04 0.16 0.17 0.19 0.31 0.44 0.51 0.54 0.52 0.68 0.85 0.61 0.60 0.89 0.85 0.63 0.54 0.54 0.56
0.00 0.00 0.01 0.02 0.31 0.47 0.30 0.37 0.50 0.86 1.05 0.97 1.09 0.91 1.18 0.91 0.49 0.81 0.80 0.62 0.53 0.42
0.02 0.01 0.01 0.02 0.19 0.53 0.79 0.59 0.59 0.77 0.88 1.13 1.06 1.27 1.15 1.24 0.74 0.38 0.60 0.56 0.46 0.61
0.13 0.08 0.05 0.07 0.16 0.45 0.96 0.91 0.76 0.62 0.82 0.71 0.61 0.86 0.78 0.84 0.79 0.62 0.43 0.44 0.48 0.41
0.30 0.26 0.19 0.19 0.31 0.25 0.98 1.29 1.27 1.15 0.91 1.37 1.24 1.03 0.97 0.83 0.67 0.81 0.69 0.56 0.50 0.50
0.28 0.26 0.28 0.38 0.53 0.54 0.59 1.29 1.35 1.47 1.48 1.10 1.50 1.09 0.82 0.80 0.91 0.66 0.92 0.88 0.67 0.55
0.51 0.38 0.40 0.67 0.83 0.94 0.84 1.08 1.32 1.46 1.44 1.24 0.94 1.15 0.99 0.83 0.66 0.73 0.53 0.56 0.77 0.68
0.43 0.62 0.43 0.42 0.64 0.93 0.89 0.86 1.16 1.34 1.41 1.54 1.20 0.90 0.96 1.00 0.75 0.74 0.73 0.52 0.45 0.53
0.13 0.27 0.33 0.38 0.34 0.36 0.53 0.70 0.80 1.03 1.40 1.64 1.77 1.37 0.97 0.86 0.92 0.83 0.72 0.74 0.61 0.44
0.03 0.05 0.04 0.07 0.10 0.13 0.20 0.33 0.50 0.66 0.76 0.96 1.27 1.51 1.39 1.16 0.96 0.88 0.87 0.86 0.75 0.61
0.01 0.00 0.00 0.00 0.00 0.00 0.01 0.02 0.06 0.13 0.22 0.31 0.43 0.62 0.85 1.06 1.09 1.09 0.96 0.81 0.86 0.82
0.02 0.00 0.00 0.00 0.00 0.00 0.00 0.00 0.00 0.00 0.02 0.04 0.08 0.11 0.16 0.20 0.38 0.55 0.77 0.84 0.80 0.76
0.02 0.01 0.00 0.00 0.00 0.00 0.00 0.00 0.00 0.00 0.00 0.01 0.03 0.02 0.03 0.03 0.04 0.08 0.12 0.18 0.24 0.32
0.00 0.02 0.00 0.00 0.00 0.00 0.00 0.00 0.00 0.00 0.00 0.00 0.01 0.01 0.01 0.01 0.01 0.03 0.04 0.04 0.06 0.08

GFSNIL_prec_precacc24_165.txt.gz
Total_Precipitation_Accumulation
0.00 0.01 0.01 0.01 0.01 0.04 0.03 0.03 0.01 0.09 0.47 0.52 0.68 0.85 0.60 0.57 0.87 0.85 0.63 0.54 0.54 0.56
0.00 0.00 0.01 0.01 0.01 0.02 0.03 0.03 0.02 0.06 0.71 0.94 1.09 0.91 1.16 0.86 0.47 0.80 0.80 0.62 0.53 0.42
0.00 0.00 0.00 0.01 0.01 0.01 0.02 0.03 0.04 0.11 0.55 1.05 1.03 1.21 1.10 1.20 0.71 0.38 0.60 0.57 0.46 0.61
0.03 0.04 0.04 0.04 0.03 0.02 0.02 0.02 0.03 0.03 0.37 0.55 0.41 0.50 0.55 0.70 0.71 0.57 0.41 0.44 0.48 0.41
0.13 0.16 0.18 0.16 0.14 0.10 0.07 0.06 0.04 0.04 0.25 1.19 1.00 0.62 0.52 0.56 0.41 0.63 0.61 0.54 0.48 0.49
0.16 0.18 0.19 0.25 0.30 0.23 0.25 0.27 0.16 0.18 0.53 0.89 1.36 0.93 0.68 0.60 0.77 0.52 0.80 0.85 0.66 0.53
0.26 0.31 0.29 0.27 0.39 0.43 0.38 0.37 0.44 0.47 0.81 0.99 0.84 1.06 0.91 0.75 0.59 0.67 0.49 0.55 0.77 0.68
0.15 0.38 0.35 0.28 0.34 0.42 0.38 0.32 0.32 0.36 0.66 1.24 1.14 0.87 0.93 0.96 0.72 0.70 0.71 0.52 0.44 0.53
0.05 0.15 0.19 0.20 0.19 0.17 0.17 0.22 0.35 0.46 0.68 0.98 1.54 1.30 0.94 0.84 0.91 0.82 0.72 0.74 0.61 0.44
0.00 0.01 0.00 0.01 0.02 0.02 0.04 0.08 0.20 0.39 0.53 0.73 1.06 1.36 1.30 1.14 0.95 0.88 0.87 0.86 0.75 0.61
0.01 0.00 0.00 0.00 0.00 0.00 0.00 0.01 0.02 0.07 0.14 0.22 0.37 0.59 0.82 1.05 1.08 1.09 0.96 0.81 0.86 0.82
0.02 0.00 0.00 0.00 0.00 0.00 0.00 0.00 0.00 0.00 0.01 0.03 0.07 0.11 0.16 0.20 0.38 0.55 0.77 0.84 0.80 0.76
0.02 0.01 0.00 0.00 0.00 0.00 0.00 0.00 0.00 0.00 0.00 0.01 0.02 0.02 0.02 0.03 0.04 0.08 0.12 0.18 0.24 0.31
0.00 0.02 0.00 0.00 0.00 0.00 0.00 0.00 0.00 0.00 0.00 0.00 0.01 0.01 0.01 0.00 0.01 0.02 0.03 0.04 0.06 0.08

GFSNIL_prec_precacc24_168.txt.gz
Total_Precipitation_Accumulation
0.00 0.00 0.01 0.01 0.01 0.03 0.03 0.02 0.01 0.00 0.01 0.01 0.01 0.09 0.30 0.46 0.82 0.80 0.62 0.54 0.54 0.56
0.00 0.00 0.01 0.01 0.01 0.02 0.02 0.03 0.02 0.00 0.00 0.00 0.00 0.00 0.13 0.46 0.36 0.74 0.78 0.62 0.53 0.42
0.00 0.00 0.00 0.01 0.01 0.00 0.01 0.03 0.04 0.01 0.00 0.00 0.00 0.00 0.07 0.60 0.51 0.29 0.51 0.52 0.45 0.59
0.01 0.01 0.00 0.01 0.01 0.01 0.01 0.02 0.03 0.02 0.01 0.00 0.01 0.01 0.01 0.18 0.53 0.45 0.29 0.33 0.41 0.37
0.01 0.00 0.01 0.01 0.03 0.05 0.04 0.04 0.03 0.04 0.02 0.02 0.01 0.02 0.01 0.02 0.20 0.51 0.50 0.44 0.39 0.44
0.00 0.01 0.03 0.04 0.11 0.14 0.11 0.19 0.14 0.07 0.06 0.06 0.06 0.05 0.03 0.05 0.39 0.33 0.60 0.67 0.56 0.48
0.01 0.04 0.07 0.08 0.16 0.28 0.31 0.33 0.42 0.38 0.29 0.22 0.13 0.09 0.08 0.08 0.20 0.54 0.35 0.36 0.53 0.51
0.00 0.04 0.06 0.09 0.13 0.29 0.32 0.31 0.31 0.29 0.33 0.39 0.36 0.33 0.24 0.18 0.30 0.54 0.64 0.45 0.36 0.39
0.00 0.00 0.02 0.03 0.08 0.11 0.14 0.17 0.26 0.34 0.43 0.49 0.53 0.53 0.41 0.35 0.44 0.50 0.63 0.70 0.56 0.39
0.00 0.00 0.00 0.00 0.00 0.01 0.01 0.02 0.08 0.20 0.31 0.41 0.50 0.52 0.53 0.54 0.51 0.53 0.72 0.83 0.74 0.60
0.00 0.00 0.00 0.00 0.00 0.00 0.00 0.00 0.00 0.00 0.02 0.07 0.14 0.26 0.34 0.48 0.60 0.72 0.79 0.76 0.84 0.81
0.01 0.00 0.00 0.00 0.00 0.00 0.00 0.00 0.00 0.00 0.00 0.00 0.01 0.02 0.05 0.09 0.23 0.38 0.66 0.78 0.77 0.74
0.01 0.01 0.00 0.00 0.00 0.00 0.00 0.00 0.00 0.00 0.00 0.00 0.01 0.01 0.01 0.02 0.03 0.06 0.10 0.17 0.23 0.31
0.00 0.01 0.00 0.00 0.00 0.00 0.00 0.00 0.00 0.00 0.00 0.00 0.01 0.00 0.01 0.00 0.00 0.02 0.03 0.04 0.06 0.08

GFSNIL_prec_precacc24_171.txt.gz
Total_Precipitation_Accumulation
0.00 0.00 0.01 0.01 0.01 0.02 0.01 0.01 0.00 0.00 0.01 0.01 0.00 0.00 0.01 0.02 0.02 0.02 0.06 0.21 0.31 0.44
0.00 0.00 0.00 0.01 0.01 0.01 0.01 0.02 0.01 0.00 0.00 0.00 0.00 0.00 0.01 0.02 0.01 0.02 0.02 0.13 0.24 0.26
0.00 0.00 0.00 0.01 0.01 0.00 0.01 0.02 0.02 0.01 0.00 0.00 0.00 0.00 0.01 0.01 0.01 0.01 0.02 0.05 0.18 0.38
0.00 0.00 0.00 0.00 0.01 0.00 0.01 0.01 0.01 0.01 0.00 0.00 0.00 0.01 0.00 0.00 0.01 0.01 0.01 0.02 0.06 0.12
0.00 0.00 0.00 0.00 0.01 0.01 0.01 0.01 0.01 0.01 0.00 0.01 0.01 0.01 0.01 0.01 0.01 0.01 0.02 0.02 0.04 0.15
0.00 0.00 0.00 0.00 0.01 0.01 0.01 0.01 0.01 0.01 0.02 0.04 0.05 0.04 0.03 0.02 0.01 0.02 0.03 0.04 0.04 0.10
0.00 0.00 0.00 0.00 0.00 0.00 0.01 0.02 0.03 0.04 0.06 0.12 0.10 0.08 0.08 0.08 0.06 0.05 0.06 0.05 0.05 0.08
0.00 0.00 0.00 0.00 0.00 0.00 0.00 0.02 0.03 0.04 0.09 0.21 0.29 0.30 0.24 0.15 0.14 0.16 0.12 0.09 0.09 0.16
0.00 0.00 0.00 0.00 0.00 0.00 0.00 0.01 0.02 0.07 0.16 0.27 0.35 0.39 0.35 0.30 0.26 0.21 0.19 0.21 0.20 0.16
0.00 0.00 0.00 0.00 0.00 0.00 0.00 0.00 0.00 0.02 0.07 0.19 0.31 0.35 0.40 0.44 0.37 0.31 0.28 0.28 0.24 0.25
0.00 0.00 0.00 0.00 0.00 0.00 0.00 0.00 0.00 0.00 0.00 0.02 0.08 0.20 0.26 0.34 0.36 0.44 0.40 0.30 0.34 0.31
0.00 0.00 0.00 0.00 0.00 0.00 0.00 0.00 0.00 0.00 0.00 0.00 0.00 0.01 0.02 0.05 0.13 0.16 0.31 0.39 0.36 0.32
0.00 0.00 0.00 0.00 0.00 0.00 0.00 0.00 0.00 0.00 0.00 0.00 0.00 0.00 0.00 0.00 0.00 0.01 0.01 0.03 0.07 0.13
0.00 0.00 0.00 0.00 0.00 0.00 0.00 0.00 0.00 0.00 0.00 0.00 0.00 0.00 0.00 0.00 0.00 0.00 0.01 0.01 0.02 0.03

GFSNIL_prec_precacc24_174.txt.gz
Total_Precipitation_Accumulation
0.00 0.00 0.00 0.00 0.00 0.01 0.00 0.00 0.00 0.00 0.00 0.00 0.00 0.00 0.00 0.00 0.01 0.01 0.03 0.04 0.04 0.05
0.00 0.00 0.00 0.00 0.00 0.01 0.01 0.01 0.00 0.00 0.00 0.00 0.00 0.00 0.00 0.01 0.00 0.01 0.01 0.04 0.04 0.05
0.00 0.00 0.00 0.00 0.00 0.00 0.01 0.01 0.01 0.00 0.00 0.00 0.00 0.00 0.01 0.01 0.00 0.01 0.01 0.04 0.05 0.05
0.00 0.00 0.00 0.00 0.00 0.00 0.00 0.00 0.00 0.01 0.00 0.00 0.00 0.00 0.00 0.00 0.00 0.01 0.01 0.02 0.04 0.06
0.00 0.00 0.00 0.00 0.00 0.00 0.00 0.00 0.00 0.00 0.00 0.01 0.01 0.01 0.01 0.01 0.01 0.01 0.01 0.02 0.02 0.04
0.00 0.00 0.00 0.00 0.00 0.00 0.00 0.00 0.00 0.01 0.01 0.02 0.03 0.02 0.01 0.01 0.01 0.01 0.02 0.02 0.03 0.04
0.00 0.00 0.00 0.00 0.00 0.00 0.00 0.00 0.00 0.01 0.01 0.02 0.02 0.01 0.02 0.02 0.02 0.03 0.04 0.04 0.05 0.06
0.00 0.00 0.00 0.00 0.00 0.00 0.00 0.00 0.00 0.00 0.00 0.01 0.03 0.05 0.06 0.05 0.06 0.08 0.08 0.08 0.08 0.12
0.00 0.00 0.00 0.00 0.00 0.00 0.00 0.00 0.00 0.00 0.01 0.01 0.03 0.02 0.06 0.10 0.13 0.12 0.14 0.17 0.17 0.13
0.00 0.00 0.00 0.00 0.00 0.00 0.00 0.00 0.00 0.00 0.00 0.01 0.02 0.02 0.06 0.13 0.15 0.16 0.17 0.22 0.20 0.21
0.00 0.00 0.00 0.00 0.00 0.00 0.00 0.00 0.00 0.00 0.00 0.00 0.00 0.00 0.02 0.06 0.08 0.19 0.21 0.18 0.25 0.25
0.00 0.00 0.00 0.00 0.00 0.00 0.00 0.00 0.00 0.00 0.00 0.00 0.00 0.00 0.00 0.00 0.01 0.02 0.09 0.15 0.17 0.20
0.00 0.00 0.00 0.00 0.00 0.00 0.00 0.00 0.00 0.00 0.00 0.00 0.00 0.00 0.00 0.00 0.00 0.00 0.00 0.01 0.03 0.05
0.00 0.00 0.00 0.00 0.00 0.00 0.00 0.00 0.00 0.00 0.00 0.00 0.00 0.00 0.00 0.00 0.00 0.00 0.00 0.00 0.01 0.02

GFSNIL_prec_precacc24_180.txt.gz
Total_Precipitation_Accumulation
0.00 0.00 0.00 0.00 0.00 0.00 0.00 0.00 0.00 0.00 0.00 0.00 0.00 0.00 0.00 0.00 0.00 0.00 0.00 0.00 0.00 0.01
0.00 0.00 0.00 0.00 0.00 0.00 0.00 0.00 0.00 0.00 0.00 0.00 0.00 0.00 0.00 0.00 0.00 0.00 0.00 0.01 0.01 0.01
0.00 0.00 0.00 0.00 0.00 0.00 0.00 0.00 0.00 0.00 0.00 0.00 0.00 0.00 0.00 0.00 0.00 0.00 0.00 0.01 0.01 0.01
0.00 0.00 0.00 0.00 0.00 0.00 0.00 0.00 0.00 0.00 0.00 0.00 0.00 0.00 0.00 0.00 0.00 0.01 0.01 0.00 0.01 0.01
0.00 0.00 0.00 0.00 0.00 0.00 0.00 0.00 0.00 0.00 0.00 0.00 0.00 0.00 0.00 0.01 0.01 0.01 0.01 0.01 0.01 0.01
0.00 0.00 0.00 0.00 0.00 0.00 0.00 0.00 0.00 0.00 0.00 0.00 0.00 0.00 0.00 0.00 0.00 0.00 0.01 0.01 0.02 0.02
0.00 0.00 0.00 0.00 0.00 0.00 0.00 0.00 0.00 0.00 0.00 0.00 0.00 0.00 0.00 0.00 0.00 0.00 0.01 0.01 0.02 0.03
0.00 0.00 0.00 0.00 0.00 0.00 0.00 0.00 0.00 0.00 0.00 0.00 0.01 0.00 0.00 0.00 0.00 0.01 0.01 0.01 0.02 0.04
0.00 0.00 0.00 0.00 0.00 0.00 0.00 0.00 0.00 0.00 0.00 0.00 0.00 0.00 0.00 0.00 0.01 0.01 0.01 0.01 0.01 0.01
0.00 0.00 0.00 0.00 0.00 0.00 0.00 0.00 0.00 0.00 0.00 0.00 0.00 0.00 0.00 0.00 0.00 0.01 0.01 0.01 0.01 0.01
0.00 0.00 0.00 0.00 0.00 0.00 0.00 0.00 0.00 0.00 0.00 0.00 0.00 0.00 0.00 0.00 0.00 0.00 0.00 0.00 0.00 0.00
0.00 0.00 0.00 0.00 0.00 0.00 0.00 0.00 0.00 0.00 0.00 0.00 0.00 0.00 0.00 0.00 0.00 0.00 0.00 0.00 0.00 0.00
0.00 0.00 0.00 0.00 0.00 0.00 0.00 0.00 0.00 0.00 0.00 0.00 0.00 0.00 0.00 0.00 0.00 0.00 0.00 0.00 0.00 0.00
0.00 0.00 0.00 0.00 0.00 0.00 0.00 0.00 0.00 0.00 0.00 0.00 0.00 0.00 0.00 0.00 0.00 0.00 0.00 0.00 0.00 0.00

GFSNIL_prec_precacc24_183.txt.gz
Total_Precipitation_Accumulation
0.00 0.00 0.00 0.00 0.00 0.00 0.00 0.00 0.00 0.00 0.00 0.00 0.00 0.00 0.00 0.00 0.00 0.00 0.00 0.00 0.00 0.01
0.00 0.00 0.00 0.00 0.00 0.00 0.00 0.00 0.00 0.00 0.00 0.00 0.00 0.00 0.00 0.00 0.00 0.00 0.00 0.00 0.00 0.01
0.00 0.00 0.00 0.00 0.00 0.00 0.00 0.00 0.00 0.00 0.00 0.00 0.00 0.00 0.00 0.00 0.00 0.00 0.00 0.00 0.01 0.01
0.00 0.00 0.00 0.00 0.00 0.00 0.00 0.00 0.00 0.00 0.00 0.00 0.00 0.00 0.00 0.00 0.00 0.00 0.00 0.00 0.01 0.01
0.00 0.00 0.00 0.00 0.00 0.00 0.00 0.00 0.00 0.00 0.00 0.00 0.00 0.00 0.00 0.00 0.00 0.00 0.00 0.01 0.01 0.01
0.00 0.00 0.00 0.00 0.00 0.00 0.00 0.00 0.00 0.00 0.00 0.00 0.00 0.00 0.00 0.00 0.00 0.00 0.00 0.01 0.01 0.02
0.00 0.00 0.00 0.00 0.00 0.00 0.00 0.00 0.00 0.00 0.00 0.00 0.00 0.00 0.00 0.00 0.00 0.00 0.00 0.01 0.01 0.02
0.00 0.00 0.00 0.00 0.00 0.00 0.00 0.00 0.00 0.00 0.00 0.00 0.00 0.00 0.00 0.00 0.00 0.00 0.00 0.00 0.01 0.02
0.00 0.00 0.00 0.00 0.00 0.00 0.00 0.00 0.00 0.00 0.00 0.00 0.00 0.00 0.00 0.00 0.00 0.00 0.00 0.00 0.00 0.00
0.00 0.00 0.00 0.00 0.00 0.00 0.00 0.00 0.00 0.00 0.00 0.00 0.00 0.00 0.00 0.00 0.00 0.00 0.00 0.00 0.00 0.00
0.00 0.00 0.00 0.00 0.00 0.00 0.00 0.00 0.00 0.00 0.00 0.00 0.00 0.00 0.00 0.00 0.00 0.00 0.00 0.00 0.00 0.00
0.00 0.00 0.00 0.00 0.00 0.00 0.00 0.00 0.00 0.00 0.00 0.00 0.00 0.00 0.00 0.00 0.00 0.00 0.00 0.00 0.00 0.00
0.00 0.00 0.00 0.00 0.00 0.00 0.00 0.00 0.00 0.00 0.00 0.00 0.00 0.00 0.00 0.00 0.00 0.00 0.00 0.00 0.00 0.00
0.00 0.00 0.00 0.00 0.00 0.00 0.00 0.00 0.00 0.00 0.00 0.00 0.00 0.00 0.00 0.00 0.00 0.00 0.00 0.00 0.00 0.00